^^
Saratoga-Weather Station Historical Data
Daily Summary for February 4, 2020 Units:  Metric    English   Both
Daily Weekly Monthly Yearly Custom
  High: Low: Average:
Temperature: 8.7 °C 2.2 °C 5.2 °C
Dew Point: 5.1 °C 1.2 °C 2.8 °C
Humidity: 94% 64% 85%
Wind Speed: 16.3km/h 0km/h 2.7km/h
Wind Gust: 16.1km/h - -
Wind- - WSW
Pressure: 1013.9 hPa 1006.8 hPa -
Precipitation: 0.2 mm    
Historical Graphs
 
 
Tabular Data for February 4, 2020
Time Temperature Dew Point Pressure Wind Wind Speed Wind Gust Humidity Rainfall Rate (Hourly) solar
00:04 3.4 °C 1.9 °C 1010.2 hPa Calm   9.7 km/h 90% 0.0 mm 0 W/m2
00:09 3.3 °C 1.8 °C 1010.5 hPa West 3.2 km/h 9.7 km/h 90% 0.0 mm 0 W/m2
00:14 3.2 °C 1.7 °C 1010.2 hPa WSW 3.2 km/h 4.8 km/h 90% 0.0 mm 0 W/m2
00:19 3.1 °C 1.6 °C 1010.5 hPa West 4.7 km/h 6.4 km/h 90% 0.0 mm 0 W/m2
00:24 3 °C 1.5 °C 1010.5 hPa West 6.4 km/h 6.4 km/h 90% 0.0 mm 0 W/m2
00:29 2.9 °C 1.4 °C 1010.5 hPa WSW 6.4 km/h 6.4 km/h 90% 0.0 mm 0 W/m2
00:34 2.8 °C 1.5 °C 1010.5 hPa West 4.7 km/h 4.8 km/h 91% 0.0 mm 0 W/m2
00:39 2.7 °C 1.4 °C 1010.5 hPa SSW 1.4 km/h 11.3 km/h 91% 0.0 mm 0 W/m2
00:44 2.7 °C 1.4 °C 1010.8 hPa West 4.7 km/h 12.9 km/h 91% 0.0 mm 0 W/m2
00:49 2.7 °C 1.5 °C 1010.5 hPa WSW 1.4 km/h 8 km/h 92% 0.0 mm 0 W/m2
00:54 2.7 °C 1.5 °C 1010.8 hPa SSW 4.7 km/h 6.4 km/h 92% 0.0 mm 0 W/m2
00:59 2.6 °C 1.4 °C 1010.8 hPa WSW 14.3 km/h 14.5 km/h 92% 0.0 mm 0 W/m2
01:04 2.6 °C 1.4 °C 1010.8 hPa West 3.2 km/h 11.3 km/h 92% 0.0 mm 0 W/m2
01:09 2.6 °C 1.4 °C 1010.8 hPa West 3.2 km/h 9.7 km/h 92% 0.0 mm 0 W/m2
01:14 2.5 °C 1.3 °C 1010.8 hPa WSW 4.7 km/h 8 km/h 92% 0.0 mm 0 W/m2
01:19 2.4 °C 1.2 °C 1010.8 hPa WNW 4.7 km/h 12.9 km/h 92% 0.0 mm 0 W/m2
01:24 2.4 °C 1.2 °C 1010.8 hPa WSW 4.7 km/h 11.3 km/h 92% 0.0 mm 0 W/m2
01:29 2.4 °C 1.4 °C 1011.2 hPa WNW 11.1 km/h 12.9 km/h 93% 0.0 mm 0 W/m2
01:34 2.3 °C 1.3 °C 1011.2 hPa West 3.2 km/h 12.9 km/h 93% 0.0 mm 0 W/m2
01:39 2.3 °C 1.3 °C 1010.8 hPa WSW 1.4 km/h 6.4 km/h 93% 0.0 mm 0 W/m2
01:45 2.3 °C 1.3 °C 1010.8 hPa West 4.7 km/h 9.7 km/h 93% 0.0 mm 0 W/m2
01:50 2.2 °C 1.2 °C 1011.2 hPa West 3.2 km/h 4.8 km/h 93% 0.0 mm 0 W/m2
01:55 2.2 °C 1.2 °C 1011.2 hPa West 3.2 km/h 6.4 km/h 93% 0.0 mm 0 W/m2
02:00 2.2 °C 1.2 °C 1011.2 hPa WSW 6.4 km/h 6.4 km/h 93% 0.0 mm 0 W/m2
02:05 2.2 °C 1.2 °C 1011.2 hPa WNW 11.1 km/h 11.3 km/h 93% 0.0 mm 0 W/m2
02:10 2.3 °C 1.4 °C 1011.2 hPa WNW 3.2 km/h 4.8 km/h 94% 0.0 mm 0 W/m2
02:15 2.2 °C 1.2 °C 1011.2 hPa NW 3.2 km/h 4.8 km/h 93% 0.0 mm 0 W/m2
02:20 2.2 °C 1.2 °C 1011.2 hPa West 4.7 km/h 6.4 km/h 93% 0.0 mm 0 W/m2
02:25 2.2 °C 1.3 °C 1011.2 hPa WSW 1.4 km/h 9.7 km/h 94% 0.0 mm 0 W/m2
02:30 2.3 °C 1.4 °C 1011.2 hPa West 4.7 km/h 4.8 km/h 94% 0.0 mm 0 W/m2
02:35 2.3 °C 1.4 °C 1011.2 hPa West 3.2 km/h 9.7 km/h 94% 0.0 mm 0 W/m2
02:40 2.3 °C 1.4 °C 1011.5 hPa WSW 1.4 km/h 6.4 km/h 94% 0.0 mm 0 W/m2
02:45 2.3 °C 1.3 °C 1011.5 hPa West 6.4 km/h 6.4 km/h 93% 0.0 mm 0 W/m2
02:50 2.3 °C 1.4 °C 1011.5 hPa SW 3.2 km/h 9.7 km/h 94% 0.0 mm 0 W/m2
02:55 2.4 °C 1.4 °C 1011.5 hPa West 3.2 km/h 16.1 km/h 93% 0.0 mm 0 W/m2
03:00 2.4 °C 1.4 °C 1011.5 hPa West 4.7 km/h 4.8 km/h 93% 0.0 mm 0 W/m2
03:05 2.4 °C 1.4 °C 1011.5 hPa NNW 4.7 km/h 11.3 km/h 93% 0.0 mm 0 W/m2
03:10 2.5 °C 1.5 °C 1011.5 hPa West 4.7 km/h 9.7 km/h 93% 0.0 mm 0 W/m2
03:15 2.5 °C 1.5 °C 1011.5 hPa WNW 3.2 km/h 6.4 km/h 93% 0.0 mm 0 W/m2
03:20 2.6 °C 1.6 °C 1011.5 hPa WSW 1.4 km/h 11.3 km/h 93% 0.0 mm 0 W/m2
03:25 2.6 °C 1.6 °C 1011.5 hPa West 3.2 km/h 4.8 km/h 93% 0.0 mm 0 W/m2
03:30 2.6 °C 1.6 °C 1011.5 hPa WSW 1.4 km/h 11.3 km/h 93% 0.0 mm 0 W/m2
03:35 2.7 °C 1.7 °C 1011.5 hPa West 1.4 km/h 6.4 km/h 93% 0.0 mm 0 W/m2
03:40 2.7 °C 1.7 °C 1011.9 hPa WNW 3.2 km/h 6.4 km/h 93% 0.0 mm 0 W/m2
03:45 2.7 °C 1.7 °C 1011.9 hPa WNW 1.4 km/h 3.2 km/h 93% 0.0 mm 0 W/m2
03:50 2.7 °C 1.7 °C 1011.5 hPa WSW 1.4 km/h 6.4 km/h 93% 0.0 mm 0 W/m2
03:55 2.7 °C 1.7 °C 1011.5 hPa WSW 3.2 km/h 3.2 km/h 93% 0.0 mm 0 W/m2
04:00 2.7 °C 1.7 °C 1011.5 hPa WNW 3.2 km/h 9.7 km/h 93% 0.0 mm 0 W/m2
04:05 2.7 °C 1.7 °C 1011.9 hPa SW 4.7 km/h 6.4 km/h 93% 0.0 mm 0 W/m2
04:10 2.8 °C 1.8 °C 1011.9 hPa WNW 1.4 km/h 4.8 km/h 93% 0.0 mm 0 W/m2
04:15 2.8 °C 1.8 °C 1011.9 hPa WSW 3.2 km/h 4.8 km/h 93% 0.0 mm 0 W/m2
04:20 2.9 °C 1.9 °C 1011.9 hPa WSW 4.7 km/h 6.4 km/h 93% 0.0 mm 0 W/m2
04:25 2.9 °C 1.9 °C 1011.9 hPa West 3.2 km/h 6.4 km/h 93% 0.0 mm 0 W/m2
04:30 3 °C 2 °C 1011.9 hPa WNW 1.4 km/h 3.2 km/h 93% 0.0 mm 0 W/m2
04:35 3.1 °C 2.1 °C 1011.9 hPa Calm   1.6 km/h 93% 0.0 mm 0 W/m2
04:40 3.1 °C 2.1 °C 1011.9 hPa West 3.2 km/h 9.7 km/h 93% 0.0 mm 0 W/m2
04:45 3.1 °C 2.1 °C 1011.9 hPa NW 1.4 km/h 9.7 km/h 93% 0.0 mm 0 W/m2
04:51 3.1 °C 2.1 °C 1011.9 hPa West 4.7 km/h 11.3 km/h 93% 0.0 mm 0 W/m2
04:56 3.2 °C 2.2 °C 1011.9 hPa WNW 6.4 km/h 6.4 km/h 93% 0.0 mm 0 W/m2
05:01 3.2 °C 2 °C 1012.2 hPa WNW 3.2 km/h 12.9 km/h 92% 0.0 mm 0 W/m2
05:06 3.2 °C 2 °C 1012.2 hPa WNW 1.4 km/h 9.7 km/h 92% 0.0 mm 0 W/m2
05:11 3.2 °C 2 °C 1012.2 hPa West 1.4 km/h 3.2 km/h 92% 0.0 mm 0 W/m2
05:16 3.2 °C 2 °C 1012.2 hPa WNW 1.4 km/h 6.4 km/h 92% 0.0 mm 0 W/m2
05:21 3.2 °C 2.2 °C 1012.2 hPa WNW 3.2 km/h 4.8 km/h 93% 0.2 mm 0 W/m2
05:26 3.2 °C 2.2 °C 1012.2 hPa WSW 6.4 km/h 9.7 km/h 93% 0.2 mm 0 W/m2
05:31 3.2 °C 2.2 °C 1012.2 hPa WSW 1.4 km/h 4.8 km/h 93% 0.2 mm 0 W/m2
05:36 3.2 °C 2.2 °C 1012.5 hPa West 3.2 km/h 6.4 km/h 93% 0.2 mm 0 W/m2
05:41 3.2 °C 2.2 °C 1012.5 hPa SW 7.9 km/h 8 km/h 93% 0.2 mm 0 W/m2
05:46 3.3 °C 2.3 °C 1012.5 hPa West 6.4 km/h 14.5 km/h 93% 0.2 mm 0 W/m2
05:52 3.3 °C 2.3 °C 1012.5 hPa WSW 1.4 km/h 3.2 km/h 93% 0.2 mm 0 W/m2
05:57 3.3 °C 2.3 °C 1012.5 hPa WSW 3.2 km/h 11.3 km/h 93% 0.2 mm 0 W/m2
06:02 3.3 °C 2.3 °C 1012.5 hPa West 4.7 km/h 11.3 km/h 93% 0.2 mm 0 W/m2
06:07 3.3 °C 2.3 °C 1012.5 hPa SW 6.4 km/h 6.4 km/h 93% 0.2 mm 0 W/m2
06:12 3.3 °C 2.4 °C 1012.5 hPa Calm   4.8 km/h 94% 0.2 mm 0 W/m2
06:17 3.3 °C 2.4 °C 1012.5 hPa WSW 3.2 km/h 4.8 km/h 94% 0.2 mm 0 W/m2
06:22 3.3 °C 2.3 °C 1012.5 hPa SW 1.4 km/h 1.6 km/h 93% 0.0 mm 0 W/m2
06:27 3.3 °C 2.4 °C 1012.5 hPa SW 1.4 km/h 3.2 km/h 94% 0.0 mm 0 W/m2
06:32 3.3 °C 2.4 °C 1012.9 hPa WNW 3.2 km/h 4.8 km/h 94% 0.0 mm 0 W/m2
06:37 3.3 °C 2.4 °C 1012.9 hPa SW 3.2 km/h 4.8 km/h 94% 0.0 mm 0 W/m2
06:42 3.3 °C 2.4 °C 1012.9 hPa West 1.4 km/h 6.4 km/h 94% 0.0 mm 0 W/m2
06:47 3.3 °C 2.4 °C 1012.9 hPa West 6.4 km/h 6.4 km/h 94% 0.0 mm 0 W/m2
06:52 3.2 °C 2.3 °C 1012.9 hPa West 4.7 km/h 4.8 km/h 94% 0.0 mm 0 W/m2
06:57 3.2 °C 2.3 °C 1012.9 hPa WSW 1.4 km/h 3.2 km/h 94% 0.0 mm 0 W/m2
07:02 3.2 °C 2.3 °C 1012.9 hPa WSW 4.7 km/h 4.8 km/h 94% 0.0 mm 0 W/m2
07:07 3.2 °C 2.3 °C 1012.9 hPa Calm   1.6 km/h 94% 0.0 mm 0 W/m2
07:12 3.2 °C 2.3 °C 1012.9 hPa WNW 1.4 km/h 1.6 km/h 94% 0.0 mm 0 W/m2
07:17 3.3 °C 2.4 °C 1012.9 hPa WNW 1.4 km/h 3.2 km/h 94% 0.0 mm 0 W/m2
07:22 3.3 °C 2.4 °C 1012.9 hPa SSW 1.4 km/h 3.2 km/h 94% 0.0 mm 5 W/m2
07:27 3.3 °C 2.4 °C 1012.9 hPa WNW 3.2 km/h 4.8 km/h 94% 0.0 mm 5 W/m2
07:32 3.3 °C 2.4 °C 1012.9 hPa NW 1.4 km/h 4.8 km/h 94% 0.0 mm 7 W/m2
07:37 3.3 °C 2.4 °C 1012.9 hPa East 1.4 km/h 4.8 km/h 94% 0.0 mm 9 W/m2
07:42 3.3 °C 2.4 °C 1013.2 hPa West 1.4 km/h 6.4 km/h 94% 0.0 mm 12 W/m2
07:47 3.4 °C 2.5 °C 1013.2 hPa WSW 3.2 km/h 6.4 km/h 94% 0.0 mm 18 W/m2
07:52 3.4 °C 2.5 °C 1013.2 hPa Calm     94% 0.0 mm 21 W/m2
07:57 3.4 °C 2.5 °C 1013.2 hPa Calm     94% 0.0 mm 30 W/m2
08:02 3.4 °C 2.5 °C 1013.2 hPa Calm     94% 0.0 mm 26 W/m2
08:07 3.4 °C 2.5 °C 1013.2 hPa SW 1.4 km/h 1.6 km/h 94% 0.0 mm 25 W/m2
08:12 3.5 °C 2.6 °C 1013.5 hPa Calm   1.6 km/h 94% 0.0 mm 33 W/m2
08:17 3.6 °C 2.7 °C 1013.5 hPa Calm     94% 0.0 mm 33 W/m2
08:22 3.6 °C 2.7 °C 1013.5 hPa ESE 3.2 km/h 3.2 km/h 94% 0.0 mm 25 W/m2
08:27 3.6 °C 2.7 °C 1013.5 hPa Calm   3.2 km/h 94% 0.0 mm 25 W/m2
08:32 3.6 °C 2.7 °C 1013.5 hPa Calm   3.2 km/h 94% 0.0 mm 26 W/m2
08:37 3.6 °C 2.7 °C 1013.5 hPa ESE 3.2 km/h 4.8 km/h 94% 0.0 mm 21 W/m2
08:42 3.7 °C 2.8 °C 1013.5 hPa ESE 1.4 km/h 3.2 km/h 94% 0.0 mm 19 W/m2
08:47 3.7 °C 2.8 °C 1013.5 hPa Calm   3.2 km/h 94% 0.0 mm 18 W/m2
08:52 3.7 °C 2.8 °C 1013.5 hPa Calm   3.2 km/h 94% 0.0 mm 21 W/m2
08:58 3.7 °C 2.8 °C 1013.5 hPa Calm   3.2 km/h 94% 0.0 mm 28 W/m2
09:03 3.7 °C 2.8 °C 1013.5 hPa Calm     94% 0.0 mm 23 W/m2
09:08 3.7 °C 2.8 °C 1013.5 hPa Calm     94% 0.0 mm 30 W/m2
09:13 3.8 °C 2.9 °C 1013.5 hPa West 1.4 km/h 3.2 km/h 94% 0.0 mm 46 W/m2
09:18 3.8 °C 2.9 °C 1013.5 hPa Calm   1.6 km/h 94% 0.0 mm 53 W/m2
09:23 3.9 °C 3 °C 1013.5 hPa Calm   3.2 km/h 94% 0.0 mm 46 W/m2
09:28 3.9 °C 3 °C 1013.5 hPa Calm   1.6 km/h 94% 0.0 mm 49 W/m2
09:33 3.9 °C 3 °C 1013.5 hPa NNW 3.2 km/h 4.8 km/h 94% 0.0 mm 49 W/m2
09:38 4 °C 3 °C 1013.5 hPa Calm   1.6 km/h 93% 0.0 mm 44 W/m2
09:43 4 °C 3 °C 1013.5 hPa NW 1.4 km/h 4.8 km/h 93% 0.0 mm 37 W/m2
09:48 4 °C 3 °C 1013.9 hPa South 1.4 km/h 11.3 km/h 93% 0.0 mm 40 W/m2
09:53 4.1 °C 3.1 °C 1013.9 hPa WNW 3.2 km/h 6.4 km/h 93% 0.0 mm 54 W/m2
09:58 4.1 °C 3.1 °C 1013.5 hPa WNW 3.2 km/h 4.8 km/h 93% 0.0 mm 69 W/m2
10:03 4.1 °C 3.1 °C 1013.5 hPa NNW 3.2 km/h 6.4 km/h 93% 0.0 mm 47 W/m2
10:08 4.1 °C 3.1 °C 1013.5 hPa Calm   1.6 km/h 93% 0.0 mm 69 W/m2
10:13 4.2 °C 3.2 °C 1013.5 hPa Calm   3.2 km/h 93% 0.0 mm 60 W/m2
10:18 4.2 °C 3.2 °C 1013.5 hPa West 1.4 km/h 3.2 km/h 93% 0.0 mm 65 W/m2
10:23 4.3 °C 3.3 °C 1013.5 hPa NE 3.2 km/h 3.2 km/h 93% 0.0 mm 74 W/m2
10:28 4.3 °C 3.3 °C 1013.5 hPa NW 4.7 km/h 9.7 km/h 93% 0.0 mm 90 W/m2
10:33 4.3 °C 3.1 °C 1013.5 hPa WNW 1.4 km/h 3.2 km/h 92% 0.0 mm 83 W/m2
10:38 4.3 °C 3.1 °C 1013.9 hPa NW 3.2 km/h 4.8 km/h 92% 0.0 mm 86 W/m2
10:44 4.4 °C 3.2 °C 1013.5 hPa NW 3.2 km/h 4.8 km/h 92% 0.0 mm 56 W/m2
10:49 4.4 °C 3.2 °C 1013.5 hPa NNW 1.4 km/h 6.4 km/h 92% 0.0 mm 74 W/m2
10:54 4.4 °C 3.2 °C 1013.5 hPa Calm   9.7 km/h 92% 0.0 mm 86 W/m2
10:59 4.5 °C 3.3 °C 1013.5 hPa WNW 3.2 km/h 4.8 km/h 92% 0.0 mm 81 W/m2
11:04 4.6 °C 3.4 °C 1013.5 hPa West 3.2 km/h 4.8 km/h 92% 0.0 mm 88 W/m2
11:09 4.7 °C 3.5 °C 1013.5 hPa WNW 1.4 km/h 3.2 km/h 92% 0.0 mm 83 W/m2
11:14 4.7 °C 3.5 °C 1013.5 hPa SW 1.4 km/h 4.8 km/h 92% 0.0 mm 84 W/m2
11:19 4.7 °C 3.5 °C 1013.5 hPa ENE 1.4 km/h 3.2 km/h 92% 0.0 mm 121 W/m2
11:24 4.8 °C 3.6 °C 1013.5 hPa NE 3.2 km/h 6.4 km/h 92% 0.0 mm 130 W/m2
11:29 4.9 °C 3.7 °C 1013.5 hPa Calm     92% 0.0 mm 125 W/m2
11:35 5 °C 3.8 °C 1013.5 hPa Calm   3.2 km/h 92% 0.0 mm 144 W/m2
11:40 5.1 °C 3.9 °C 1013.5 hPa NW 1.4 km/h 3.2 km/h 92% 0.0 mm 188 W/m2
11:45 5.2 °C 4 °C 1013.5 hPa West 6.4 km/h 6.4 km/h 92% 0.0 mm 269 W/m2
11:50 5.3 °C 4.1 °C 1013.2 hPa NNW 3.2 km/h 6.4 km/h 92% 0.0 mm 309 W/m2
11:55 5.4 °C 4.2 °C 1013.5 hPa SW 1.4 km/h 4.8 km/h 92% 0.0 mm 250 W/m2
12:00 5.7 °C 4.5 °C 1013.5 hPa East 3.2 km/h 6.4 km/h 92% 0.0 mm 302 W/m2
12:05 5.9 °C 4.7 °C 1013.5 hPa NNW 1.4 km/h 3.2 km/h 92% 0.0 mm 274 W/m2
12:10 6.1 °C 4.7 °C 1013.5 hPa WNW 4.7 km/h 11.3 km/h 91% 0.0 mm 450 W/m2
12:15 6.2 °C 4.7 °C 1013.5 hPa SSW 3.2 km/h 6.4 km/h 90% 0.0 mm 341 W/m2
12:20 6.3 °C 4.8 °C 1013.5 hPa NW 6.4 km/h 6.4 km/h 90% 0.0 mm 545 W/m2
12:25 6.7 °C 5 °C 1013.2 hPa NNW 3.2 km/h 4.8 km/h 89% 0.0 mm 329 W/m2
12:30 6.8 °C 4.6 °C 1013.2 hPa West 1.4 km/h 12.9 km/h 86% 0.0 mm 338 W/m2
12:35 7.1 °C 5.1 °C 1013.2 hPa West 3.2 km/h 3.2 km/h 87% 0.0 mm 671 W/m2
12:40 7.2 °C 4.8 °C 1013.2 hPa West 4.7 km/h 9.7 km/h 85% 0.0 mm 237 W/m2
12:46 7.3 °C 4.8 °C 1013.2 hPa ENE 6.4 km/h 8 km/h 84% 0.0 mm 253 W/m2
12:51 7.4 °C 4.7 °C 1012.9 hPa Calm   3.2 km/h 83% 0.0 mm 229 W/m2
12:56 7.5 °C 4.6 °C 1012.9 hPa WNW 3.2 km/h 8 km/h 82% 0.0 mm 257 W/m2
13:01 7.7 °C 4.6 °C 1012.9 hPa NW 1.4 km/h 12.9 km/h 81% 0.0 mm 364 W/m2
13:06 7.8 °C 4.7 °C 1012.9 hPa SW 3.2 km/h 3.2 km/h 81% 0.0 mm 260 W/m2
13:11 7.8 °C 4.4 °C 1012.9 hPa SW 3.2 km/h 11.3 km/h 79% 0.0 mm 353 W/m2
13:16 7.7 °C 4.5 °C 1012.9 hPa SW 6.4 km/h 9.7 km/h 80% 0.0 mm 181 W/m2
13:21 7.7 °C 4.5 °C 1012.5 hPa West 4.7 km/h 4.8 km/h 80% 0.0 mm 151 W/m2
13:26 7.6 °C 4.2 °C 1012.5 hPa West 1.4 km/h 11.3 km/h 79% 0.0 mm 329 W/m2
13:31 7.7 °C 4.3 °C 1012.5 hPa NNW 7.9 km/h 11.3 km/h 79% 0.0 mm 279 W/m2
13:36 7.9 °C 4.3 °C 1012.5 hPa SW 6.4 km/h 11.3 km/h 78% 0.0 mm 206 W/m2
13:41 8 °C 4 °C 1012.5 hPa West 1.4 km/h 9.7 km/h 76% 0.0 mm 193 W/m2
13:46 7.9 °C 3.7 °C 1012.5 hPa NW 3.2 km/h 8 km/h 75% 0.0 mm 410 W/m2
13:51 8.2 °C 4.2 °C 1012.2 hPa NW 6.4 km/h 11.3 km/h 76% 0.0 mm 192 W/m2
13:56 8.3 °C 4.1 °C 1012.2 hPa West 9.7 km/h 9.7 km/h 75% 0.0 mm 118 W/m2
14:01 8.3 °C 3.9 °C 1012.2 hPa South 3.2 km/h 3.2 km/h 74% 0.0 mm 107 W/m2
14:06 8.1 °C 3.7 °C 1012.2 hPa SW 6.4 km/h 9.7 km/h 74% 0.0 mm 137 W/m2
14:11 8.1 °C 3.6 °C 1012.2 hPa WNW 1.4 km/h 12.9 km/h 73% 0.0 mm 276 W/m2
14:16 8.2 °C 3.6 °C 1012.2 hPa NW 6.4 km/h 8 km/h 73% 0.0 mm 132 W/m2
14:21 8.4 °C 3.6 °C 1012.2 hPa WSW 7.9 km/h 11.3 km/h 72% 0.0 mm 113 W/m2
14:26 8.4 °C 3.6 °C 1011.9 hPa NW 4.7 km/h 16.1 km/h 72% 0.0 mm 531 W/m2
14:31 8.6 °C 4 °C 1011.9 hPa WNW 7.9 km/h 9.7 km/h 73% 0.0 mm 490 W/m2
14:36 8.7 °C 3.9 °C 1011.9 hPa West 14.3 km/h 16.1 km/h 72% 0.0 mm 492 W/m2
14:41 8.7 °C 3.5 °C 1011.9 hPa WSW 16.3 km/h 16.1 km/h 70% 0.0 mm 394 W/m2
14:47 8.7 °C 3.3 °C 1011.9 hPa WNW 13 km/h 14.5 km/h 69% 0.0 mm 271 W/m2
14:52 8.6 °C 3.2 °C 1011.9 hPa West 6.4 km/h 11.3 km/h 69% 0.0 mm 172 W/m2
14:57 8.5 °C 3.1 °C 1011.9 hPa NW 13 km/h 14.5 km/h 69% 0.0 mm 178 W/m2
15:02 8.4 °C 3 °C 1011.9 hPa NW 4.7 km/h 8 km/h 69% 0.0 mm 128 W/m2
15:07 8.3 °C 3.1 °C 1011.9 hPa WSW 14.5 km/h 14.5 km/h 70% 0.0 mm 95 W/m2
15:12 8.2 °C 3.3 °C 1011.9 hPa NNW 4.7 km/h 4.8 km/h 71% 0.0 mm 88 W/m2
15:17 8.1 °C 3 °C 1011.5 hPa WNW 11.3 km/h 11.3 km/h 70% 0.0 mm 95 W/m2
15:22 8.1 °C 3 °C 1011.5 hPa WNW 1.4 km/h 6.4 km/h 70% 0.0 mm 142 W/m2
15:27 8.2 °C 3.5 °C 1011.2 hPa SSE 3.2 km/h 4.8 km/h 72% 0.0 mm 146 W/m2
15:32 8.3 °C 3.4 °C 1011.2 hPa SW 4.7 km/h 6.4 km/h 71% 0.0 mm 135 W/m2
15:37 8.3 °C 3.1 °C 1011.2 hPa Calm   4.8 km/h 70% 0.0 mm 171 W/m2
15:42 8.3 °C 3.1 °C 1011.2 hPa WSW 3.2 km/h 4.8 km/h 70% 0.0 mm 209 W/m2
15:47 8.4 °C 2.8 °C 1011.2 hPa SSW 3.2 km/h 8 km/h 68% 0.0 mm 192 W/m2
15:52 8.5 °C 2.7 °C 1010.8 hPa West 1.4 km/h 6.4 km/h 67% 0.0 mm 156 W/m2
15:57 8.5 °C 2.5 °C 1010.8 hPa NW 3.2 km/h 4.8 km/h 66% 0.0 mm 156 W/m2
16:02 8.6 °C 2.8 °C 1010.8 hPa WNW 4.7 km/h 4.8 km/h 67% 0.0 mm 179 W/m2
16:07 8.6 °C 2.6 °C 1010.8 hPa West 4.7 km/h 8 km/h 66% 0.0 mm 218 W/m2
16:12 8.6 °C 2.4 °C 1010.8 hPa NW 3.2 km/h 14.5 km/h 65% 0.0 mm 190 W/m2
16:17 8.7 °C 2.5 °C 1010.8 hPa SW 9.7 km/h 12.9 km/h 65% 0.0 mm 156 W/m2
16:22 8.7 °C 2.7 °C 1010.5 hPa West 6.4 km/h 14.5 km/h 66% 0.0 mm 116 W/m2
16:27 8.6 °C 2.2 °C 1010.5 hPa NW 4.7 km/h 14.5 km/h 64% 0.0 mm 74 W/m2
16:32 8.5 °C 2.3 °C 1010.5 hPa NW 1.4 km/h 3.2 km/h 65% 0.0 mm 63 W/m2
16:37 8.5 °C 2.5 °C 1010.5 hPa WSW 11.1 km/h 14.5 km/h 66% 0.0 mm 83 W/m2
16:42 8.4 °C 2.4 °C 1010.5 hPa SW 3.2 km/h 6.4 km/h 66% 0.0 mm 105 W/m2
16:47 8.3 °C 2.5 °C 1010.5 hPa Calm   8 km/h 67% 0.0 mm 107 W/m2
16:52 8.4 °C 2.6 °C 1010.5 hPa NW 6.4 km/h 6.4 km/h 67% 0.0 mm 113 W/m2
16:57 8.4 °C 2.6 °C 1010.5 hPa WNW 4.7 km/h 4.8 km/h 67% 0.0 mm 102 W/m2
17:02 8.4 °C 2.6 °C 1010.5 hPa Calm   4.8 km/h 67% 0.0 mm 95 W/m2
17:07 8.4 °C 2.6 °C 1010.5 hPa SSW 3.2 km/h 4.8 km/h 67% 0.0 mm 77 W/m2
17:12 8.4 °C 2.6 °C 1010.5 hPa West 1.4 km/h 1.6 km/h 67% 0.0 mm 72 W/m2
17:17 8.4 °C 2.6 °C 1010.5 hPa West 3.2 km/h 4.8 km/h 67% 0.0 mm 70 W/m2
17:22 8.4 °C 2.8 °C 1010.2 hPa NNW 1.4 km/h 3.2 km/h 68% 0.0 mm 53 W/m2
17:27 8.3 °C 2.7 °C 1010.2 hPa WNW 1.4 km/h 9.7 km/h 68% 0.0 mm 32 W/m2
17:32 8.3 °C 2.7 °C 1010.2 hPa Calm   3.2 km/h 68% 0.0 mm 30 W/m2
17:37 8.2 °C 2.6 °C 1010.2 hPa North 3.2 km/h 9.7 km/h 68% 0.0 mm 28 W/m2
17:42 8.2 °C 2.6 °C 1010.2 hPa North 3.2 km/h 3.2 km/h 68% 0.0 mm 28 W/m2
17:47 8.1 °C 2.5 °C 1010.2 hPa NW 1.4 km/h 1.6 km/h 68% 0.0 mm 25 W/m2
17:52 8.1 °C 2.5 °C 1010.2 hPa WNW 3.2 km/h 3.2 km/h 68% 0.0 mm 19 W/m2
17:57 8 °C 2.7 °C 1010.2 hPa WNW 3.2 km/h 3.2 km/h 69% 0.0 mm 12 W/m2
18:02 7.9 °C 2.8 °C 1010.2 hPa Calm   1.6 km/h 70% 0.0 mm 16 W/m2
18:07 7.8 °C 2.7 °C 1010.2 hPa Calm     70% 0.0 mm 16 W/m2
18:12 7.8 °C 2.7 °C 1010.2 hPa SW 1.4 km/h 1.6 km/h 70% 0.0 mm 9 W/m2
18:17 7.8 °C 2.7 °C 1010.2 hPa Calm   3.2 km/h 70% 0.0 mm 0 W/m2
18:22 7.7 °C 2.6 °C 1010.2 hPa Calm   1.6 km/h 70% 0.0 mm 0 W/m2
18:27 7.6 °C 2.9 °C 1010.2 hPa Calm     72% 0.0 mm 0 W/m2
18:32 7.5 °C 3 °C 1010.2 hPa Calm     73% 0.0 mm 0 W/m2
18:37 7.3 °C 3 °C 1009.8 hPa Calm     74% 0.0 mm 0 W/m2
18:42 7.2 °C 3.1 °C 1009.8 hPa Calm   1.6 km/h 75% 0.0 mm 0 W/m2
18:47 7.1 °C 3.2 °C 1009.8 hPa Calm     76% 0.0 mm 0 W/m2
18:53 6.9 °C 3 °C 1009.8 hPa Calm     76% 0.0 mm 0 W/m2
18:58 6.8 °C 3.1 °C 1009.8 hPa Calm   1.6 km/h 77% 0.0 mm 0 W/m2
19:03 6.8 °C 3.1 °C 1009.5 hPa Calm   1.6 km/h 77% 0.0 mm 0 W/m2
19:08 6.7 °C 3.1 °C 1009.8 hPa SW 3.2 km/h 3.2 km/h 78% 0.0 mm 0 W/m2
19:13 6.7 °C 3.1 °C 1009.5 hPa Calm   1.6 km/h 78% 0.0 mm 0 W/m2
19:18 6.7 °C 3.3 °C 1009.5 hPa Calm   1.6 km/h 79% 0.0 mm 0 W/m2
19:23 6.6 °C 3.2 °C 1009.5 hPa Calm     79% 0.0 mm 0 W/m2
19:28 6.4 °C 3 °C 1009.5 hPa Calm     79% 0.0 mm 0 W/m2
19:33 6.4 °C 3.2 °C 1009.5 hPa Calm     80% 0.0 mm 0 W/m2
19:38 6.3 °C 3.3 °C 1009.5 hPa Calm     81% 0.0 mm 0 W/m2
19:43 6.2 °C 3.2 °C 1009.8 hPa Calm     81% 0.0 mm 0 W/m2
19:48 6.1 °C 3.1 °C 1009.5 hPa Calm     81% 0.0 mm 0 W/m2
19:53 6.1 °C 3.3 °C 1009.5 hPa Calm     82% 0.0 mm 0 W/m2
19:58 6 °C 3.2 °C 1009.5 hPa Calm   1.6 km/h 82% 0.0 mm 0 W/m2
20:03 5.9 °C 3.2 °C 1009.1 hPa Calm     83% 0.0 mm 0 W/m2
20:08 5.9 °C 3.2 °C 1009.1 hPa Calm     83% 0.0 mm 0 W/m2
20:13 5.9 °C 3.2 °C 1009.1 hPa Calm     83% 0.0 mm 0 W/m2
20:18 5.8 °C 3.1 °C 1009.1 hPa Calm     83% 0.0 mm 0 W/m2
20:23 5.7 °C 3.2 °C 1009.1 hPa Calm     84% 0.0 mm 0 W/m2
20:28 5.7 °C 3.2 °C 1009.1 hPa Calm     84% 0.0 mm 0 W/m2
20:33 5.6 °C 3.1 °C 1009.1 hPa Calm     84% 0.0 mm 0 W/m2
20:38 5.6 °C 3.1 °C 1009.1 hPa Calm     84% 0.0 mm 0 W/m2
20:43 5.5 °C 3.2 °C 1009.1 hPa Calm     85% 0.0 mm 0 W/m2
20:48 5.4 °C 3.1 °C 1009.1 hPa Calm     85% 0.0 mm 0 W/m2
20:53 5.3 °C 3 °C 1008.8 hPa Calm     85% 0.0 mm 0 W/m2
20:58 5.3 °C 3 °C 1008.8 hPa Calm     85% 0.0 mm 0 W/m2
21:03 5.3 °C 3 °C 1008.8 hPa Calm     85% 0.0 mm 0 W/m2
21:08 5.2 °C 2.9 °C 1008.8 hPa Calm     85% 0.0 mm 0 W/m2
21:13 5.2 °C 3.1 °C 1009.1 hPa Calm     86% 0.0 mm 0 W/m2
21:18 5.3 °C 3.1 °C 1008.8 hPa Calm     86% 0.0 mm 0 W/m2
21:23 5.3 °C 3.1 °C 1009.1 hPa Calm     86% 0.0 mm 0 W/m2
21:28 5.3 °C 3.1 °C 1009.1 hPa Calm     86% 0.0 mm 0 W/m2
21:33 5.3 °C 3.3 °C 1009.1 hPa Calm     87% 0.0 mm 0 W/m2
21:38 5.2 °C 3.2 °C 1009.1 hPa Calm     87% 0.0 mm 0 W/m2
21:43 5.2 °C 3.2 °C 1008.8 hPa Calm   1.6 km/h 87% 0.0 mm 0 W/m2
21:48 5.2 °C 3.2 °C 1008.8 hPa Calm     87% 0.0 mm 0 W/m2
21:53 5.2 °C 3.2 °C 1008.8 hPa Calm   1.6 km/h 87% 0.0 mm 0 W/m2
21:58 5.2 °C 3.2 °C 1008.8 hPa Calm     87% 0.0 mm 0 W/m2
22:03 5.3 °C 3.3 °C 1008.8 hPa ENE 3.2 km/h 4.8 km/h 87% 0.0 mm 0 W/m2
22:08 5.5 °C 3.5 °C 1008.5 hPa Calm   3.2 km/h 87% 0.0 mm 0 W/m2
22:13 5.7 °C 3.5 °C 1008.5 hPa ENE 1.4 km/h 3.2 km/h 86% 0.0 mm 0 W/m2
22:18 5.7 °C 3.4 °C 1008.5 hPa NE 1.4 km/h 3.2 km/h 85% 0.0 mm 0 W/m2
22:23 5.9 °C 3.4 °C 1008.5 hPa Calm   4.8 km/h 84% 0.0 mm 0 W/m2
22:28 6 °C 3.5 °C 1008.5 hPa ESE 3.2 km/h 9.7 km/h 84% 0.0 mm 0 W/m2
22:33 6.1 °C 3.6 °C 1008.1 hPa East 1.4 km/h 3.2 km/h 84% 0.0 mm 0 W/m2
22:38 6.1 °C 3.6 °C 1008.1 hPa East 3.2 km/h 9.7 km/h 84% 0.0 mm 0 W/m2
22:43 6.1 °C 3.6 °C 1008.1 hPa Calm   3.2 km/h 84% 0.0 mm 0 W/m2
22:48 6 °C 3.5 °C 1007.8 hPa Calm   3.2 km/h 84% 0.0 mm 0 W/m2
22:53 5.9 °C 3.6 °C 1007.8 hPa NE 4.7 km/h 6.4 km/h 85% 0.0 mm 0 W/m2
22:58 5.9 °C 3.6 °C 1007.8 hPa ENE 1.4 km/h 3.2 km/h 85% 0.0 mm 0 W/m2
23:03 5.9 °C 3.6 °C 1007.8 hPa NE 1.4 km/h 4.8 km/h 85% 0.0 mm 0 W/m2
23:08 5.9 °C 3.6 °C 1007.5 hPa ENE 3.2 km/h 8 km/h 85% 0.0 mm 0 W/m2
23:13 5.9 °C 3.6 °C 1007.5 hPa East 3.2 km/h 6.4 km/h 85% 0.0 mm 0 W/m2
23:18 5.9 °C 3.6 °C 1007.5 hPa East 3.2 km/h 12.9 km/h 85% 0.0 mm 0 W/m2
23:23 5.9 °C 3.6 °C 1007.5 hPa ENE 3.2 km/h 3.2 km/h 85% 0.0 mm 0 W/m2
23:28 5.9 °C 3.6 °C 1007.5 hPa Calm   12.9 km/h 85% 0.0 mm 0 W/m2
23:33 5.8 °C 3.5 °C 1007.5 hPa ESE 4.7 km/h 6.4 km/h 85% 0.0 mm 0 W/m2
23:38 5.8 °C 3.6 °C 1007.5 hPa East 1.4 km/h 12.9 km/h 86% 0.0 mm 0 W/m2
23:43 5.8 °C 3.6 °C 1007.5 hPa East 1.4 km/h 3.2 km/h 86% 0.0 mm 0 W/m2
23:48 5.7 °C 3.7 °C 1007.1 hPa East 1.4 km/h 4.8 km/h 87% 0.0 mm 0 W/m2
23:53 5.5 °C 3.7 °C 1007.1 hPa NE 1.4 km/h 3.2 km/h 88% 0.0 mm 0 W/m2
23:58 5.4 °C 3.7 °C 1006.8 hPa East 3.2 km/h 3.2 km/h 89% 0.0 mm 0 W/m2
Juneau County Weather
Compliments of Weather Underground - 2 mb